This is the latest recevied weather packets stored in our database for station/object EA1IOK-13. If no packets are shown the sender has not sent any weather packets the latest 10 day(s).
| Time | Temp. | Humidity | Pressure | Rain* | Wind** | Luminosity | Snow |
|---|---|---|---|---|---|---|---|
| 1778042373 | 6.67° C | 97% | 1015 hPa | 0 mm | - | - | - |
| 1778042149 | 6.67° C | 97% | 1015 hPa | 0 mm | - | - | - |
| 1778040349 | 7.78° C | 98% | 1015 hPa | 0 mm | - | - | - |
| 1778038610 | 5.56° C | 97% | 1015.1 hPa | 0 mm | - | - | - |
| 1778038548 | 5.56° C | 97% | 1015.1 hPa | 0 mm | - | - | - |
| 1778036749 | 6.67° C | 96% | 1015.3 hPa | 0 mm | - | - | - |
| 1778035178 | 6.67° C | 96% | 1015.3 hPa | 0 mm | - | - | - |
| 1778034949 | 6.67° C | 96% | 1015.3 hPa | 0 mm | - | - | - |
| 1778033221 | 6.67° C | 96% | 1015.5 hPa | 0 mm | - | - | - |
| 1778033150 | 6.67° C | 96% | 1015.5 hPa | 0 mm | - | - | - |
| 1778031581 | 6.67° C | 94% | 1015.8 hPa | 0 mm | - | - | - |
| 1778031352 | 6.67° C | 94% | 1015.8 hPa | 0 mm | - | - | - |
| 1778027977 | 8.33° C | 94% | 1016.1 hPa | 0 mm | - | - | - |
| 1778027749 | 8.33° C | 94% | 1016.1 hPa | 0 mm | - | - | - |
| 1778025949 | 8.89° C | 94% | 1016.2 hPa | 0 mm | - | - | - |
| 1778024303 | 8.89° C | 94% | 1016.3 hPa | 0 mm | - | - | - |
| 1778024149 | 8.89° C | 94% | 1016.3 hPa | 0 mm | - | - | - |
| 1778022349 | 8.89° C | 94% | 1016.4 hPa | 0 mm | - | - | - |
| 1778020593 | 8.33° C | 94% | 1016.4 hPa | 0 mm | - | - | - |
| 1778020549 | 8.33° C | 94% | 1016.4 hPa | 0 mm | - | - | - |
| 1778018828 | 8.89° C | 94% | 1016.5 hPa | 0 mm | - | - | - |
| 1778018749 | 8.89° C | 94% | 1016.5 hPa | 0 mm | - | - | - |
| 1778017179 | 8.89° C | 94% | 1016.4 hPa | 0 mm | - | - | - |
| 1778016950 | 8.89° C | 94% | 1016.4 hPa | 0 mm | - | - | - |
| 1778015149 | 9.44° C | 94% | 1016.4 hPa | 0 mm | - | - | - |
* Rain latest hour (hover to see other rain measurements)
** Current wind speed in m/s (hover to see current wind gust speed)